Regional Weather Roundup
Issued by NWS

Home | Current Version | Previous Version | Text Only | Print | Product List | Glossary Off
Versions: 1 2 3 4 5 6 7 8 9 10 11 12 13 14 15 16 17 18 19 20 21 22 23 24 25 26 27 28 29 30 31 32 33 34 35 36 37 38 39 40 41 42 43 44 45 46 47 48 49 50

160
ASUS43 KOAX 100110
RWRNE

WEATHER ROUNDUP FOR NEBRASKA
NATIONAL WEATHER SERVICE OMAHA NE
700 PM CST FRI DEC 09 2016

NOTES: SATELLITE DATA IS BEING USED TO AUGMENT CLOUD COVER ABOVE
       12000 FEET.
       "FAIR" INDICATES FEW OR NO CLOUDS BELOW 12,000 FEET WITH NO
       SIGNIFICANT WEATHER AND/OR OBSTRUCTIONS TO VISIBILITY.

  * THESE STATIONS DO NOT REPORT WEATHER SUCH AS RAIN...SNOW OR FOG.

NEZ001>004-019>022-054>056-100200-
NEBRASKA PANHANDLE

CITY           SKY/WX    TMP DP  RH WIND       PRES   REMARKS
SCOTTSBLUFF    CLOUDY    15   5  64 E13       30.20F WCI   1
ALLIANCE       CLOUDY     8   2  76 N7        30.22F WCI  -3
CHADRON        CLOUDY     4  -1  80 N6        30.32R WCI  -7
KIMBALL        CLOUDY    19  15  85 E6        30.15S WCI  11
SIDNEY         CLOUDY    17  10  74 E7        30.19S WCI   8
$$

NEZ057>060-069>072-079>082-100200-
SOUTHWEST NEBRASKA

CITY           SKY/WX    TMP DP  RH WIND       PRES   REMARKS
NORTH PLATTE   CLOUDY    15   9  76 CALM      30.30S
IMPERIAL       CLOUDY    22  16  78 NE6       30.24S WCI  14
LEXINGTON      CLOUDY    21  13  72 SE6       30.34S WCI  13
MCCOOK         CLOUDY    20  13  74 E9        30.29S WCI   9
OGALLALA       CLOUDY    15  10  81 CALM      30.25S
$$

NEZ005>010-023>029-035>040-094-100200-
NORTH CENTRAL NEBRASKA

CITY           SKY/WX    TMP DP  RH WIND       PRES   REMARKS
VALENTINE      CLOUDY     8   3  80 NE10      30.37F WCI  -6
AINSWORTH      CLOUDY     8   6  94 NE5       30.36S WCI  -1
BROKEN BOW     CLOUDY    15   9  76 SE6       30.33R WCI   6
O`NEILL        CLOUDY    17  11  78 CALM      30.41F
THEDFORD       CLOUDY    15   9  74 E5        30.29S WCI   8
$$

NEZ041-046>049-061>064-073>077-083>087-100200-
SOUTH CENTRAL NEBRASKA

CITY           SKY/WX    TMP DP  RH WIND       PRES   REMARKS
GRAND ISLAND   CLOUDY    22  13  68 S7        30.42S WCI  13
AURORA         CLOUDY    22  13  66 S7        30.42F WCI  14
HASTINGS       CLOUDY    18  11  74 SE6       30.42R WCI  10
HEBRON         CLOUDY    24  15  68 SE6       30.46S WCI  17
HOLDREGE       CLOUDY    15  10  80 E8        30.35S WCI   3
KEARNEY *      CLOUDY    16   7  67 SE7       30.38S WCI   6
YORK           CLOUDY    23  14  68 CALM      30.45R
$$

NEZ011>018-030>034-042>045-100200-
NORTHEAST NEBRASKA

CITY           SKY/WX    TMP DP  RH WIND       PRES   REMARKS
NORFOLK        CLOUDY    18   9  68 SE6       30.46S WCI  10
ALBION         CLOUDY    20  11  68 SE5       30.44S WCI  14
BLAIR          CLOUDY    21  12  69 SE3       30.49R
FREMONT        CLOUDY    20  12  69 SE6       30.50R WCI  13
TEKAMAH        CLOUDY    20   9  62 E3        30.52S
WAYNE          CLOUDY    17  11  75 S3        30.49S
$$

NEZ050>053-065>068-078-088>093-100200-
SOUTHEAST NEBRASKA

CITY           SKY/WX    TMP DP  RH WIND       PRES   REMARKS
LINCOLN        CLOUDY    23  13  65 SE5       30.51R WCI  17
OMAHA EPPLEY   CLOUDY    22  11  62 SE8       30.52S WCI  12
BEATRICE       CLOUDY    25  13  61 SE7       30.47S WCI  17
FALLS CITY     CLOUDY    25  13  60 SE3       30.51S
NEBRASKA CITY  CLOUDY    22  10  59 SE5       30.50S WCI  16
PLATTSMOUTH    CLOUDY    22  10  58 E5        30.50S WCI  16
$$

NEZ044-045-051>053-067-100200-
OMAHA AREA

CITY           SKY/WX    TMP DP  RH WIND       PRES   REMARKS
OMAHA EPPLEY   CLOUDY    22  11  62 SE8       30.52S WCI  12
BLAIR          CLOUDY    21  12  69 SE3       30.49R
FREMONT        CLOUDY    20  12  69 SE6       30.50R WCI  13
MILLARD        CLOUDY    24  13  63 SE5       30.52R WCI  18
OFFUTT AFB     CLOUDY    22  12  66 SE6       30.52R WCI  14
PLATTSMOUTH    CLOUDY    22  10  58 E5        30.50S WCI  16
WAHOO          CLOUDY    22  12  66 SE6       30.50R WCI  14
$$




USA.gov is the U.S. government's official web portal to all federal, state and local government web resources and services.